Terminal Aerodrome Forecast
Issued by NWS Cleveland, OH

Home | Current Version | Previous Version | Text Only | Print | Product List | Glossary On
Versions: 1 2 3 4 5 6 7 8 9 10 11 12 13 14 15 16 17 18 19
000
FTUS41 KCLE 041140
TAFYNG
TAF
KYNG 041140Z 0412/0512 VRB04KT 4SM BR VCSH SCT003 BKN080
      TEMPO 0412/0414 2SM -SHRA BR BKN010
     FM041900 20006KT P6SM VCTS BKN040CB
     FM050000 10003KT P6SM SCT050 BKN250
     FM050700 13003KT 4SM BR SCT120=

USA.gov is the U.S. government's official web portal to all federal, state and local government web resources and services.